DW8522 Weather Reports


Display with metric or nautical units.
time (UTC)temp
F
wind
direction
speed
MPH
gust
MPH
rain 1hr
in
rain 24hr
in
rain mn
in
humidity
%
barometer
mb
20260905021551 63 194 3.0 9.0 0.00 0.03 0.00 61 1017.2
20260905020049 63 249 3.0 11.0 0.00 0.03 0.00 62 1017.3
20260905014550 64 228 4.0 12.0 0.00 0.03 0.00 60 1017.6
20260905013055 64 172 3.0 7.0 0.00 0.03 0.00 60 1017.6
20260905011647 64 210 3.0 7.0 0.00 0.03 0.00 59 1017.7
20260905010047 65 207 3.0 9.0 0.00 0.03 0.00 59 1017.9
20260905004552 65 239 3.0 10.0 0.00 0.03 0.00 59 1017.9
20260905003047 65 240 3.0 10.0 0.00 0.03 0.00 59 1018.1
20260905001543 65 158 3.0 5.0 0.00 0.03 0.00 60 1018.3
20260905000041 64 266 5.0 15.0 0.00 0.03 0.00 62 1018.2
20260904234540 64 229 4.0 11.0 0.00 0.03 0.00 59 1018.3
20260904233039 64 160 1.0 7.0 0.00 0.03 0.00 63 1018.5
20260904231539 63 181 2.0 6.0 0.00 0.03 0.00 62 1018.6
20260904230057 63 228 2.0 9.0 0.00 0.03 0.00 66 1018.6
20260904224533 62 278 3.0 8.0 0.00 0.03 0.00 66 1018.7
20260904223032 62 222 1.0 4.0 0.00 0.03 0.00 66 1018.7
20260904221529 62 181 1.0 4.0 0.00 0.03 0.00 68 1018.6
20260904220028 61 160 1.0 6.0 0.00 0.03 0.00 70 1018.5
20260904214523 60 150 2.0 9.0 0.00 0.03 0.00 71 1018.5
20260904213020 60 156 2.0 6.0 0.00 0.03 0.00 74 1018.4
20260904211516 59 163 3.0 9.0 0.00 0.03 0.00 74 1018.3
20260904210013 58 190 4.0 13.0 0.00 0.03 0.00 75 1018.1
20260904204511 57 163 3.0 10.0 0.00 0.03 0.00 77 1018.0
20260904203007 56 224 6.0 13.0 0.00 0.03 0.00 77 1017.8
20260904201502 56 198 5.0 13.0 0.00 0.03 0.00 79 1017.8
20260904200004 55 289 4.0 9.0 0.00 0.03 0.00 80 1017.8
20260904194503 54 163 3.0 10.0 0.00 0.03 0.00 81 1017.9
20260904193100 54 230 3.0 9.0 0.00 0.03 0.00 82 1017.8
20260904191558 53 197 4.0 9.0 0.00 0.03 0.00 83 1017.6
20260904190058 53 213 3.0 8.0 0.00 0.03 0.00 83 1017.5
20260904184555 53 284 3.0 13.0 0.00 0.03 0.00 82 1017.2
20260904183111 53 260 4.0 15.0 0.00 0.03 0.00 82 1017.2
20260904181551 53 194 5.0 11.0 0.00 0.03 0.00 82 1017.3
20260904180050 53 245 4.0 10.0 0.00 0.03 0.00 82 1017.2
20260904174548 53 296 4.0 11.0 0.00 0.03 0.00 82 1017.0
20260904173045 53 231 5.0 11.0 0.00 0.03 0.00 82 1016.9
20260904171544 53 219 4.0 11.0 0.00 0.03 0.00 82 1016.9
20260904170041 53 257 4.0 10.0 0.00 0.03 0.00 83 1016.8
20260904164538 53 229 5.0 13.0 0.00 0.03 0.00 83 1016.7
20260904163036 53 263 5.0 10.0 0.00 0.03 0.00 83 1016.3
20260904161533 53 281 4.0 11.0 0.00 0.03 0.00 82 1016.2
20260904160031 54 290 4.0 8.0 0.00 0.03 0.00 82 1016.1
20260904154529 54 277 3.0 12.0 0.00 0.03 0.00 81 1015.7
20260904153027 54 267 4.0 12.0 0.00 0.03 0.00 81 1015.6
20260904151527 55 269 4.0 9.0 0.00 0.03 0.00 80 1015.7
20260904150027 55 253 4.0 9.0 0.00 0.03 0.00 80 1015.9
20260904144524 55 239 4.0 12.0 0.00 0.03 0.00 80 1015.8
20260904143021 55 315 2.0 10.0 0.00 0.03 0.00 79 1015.9
20260904141520 56 205 3.0 9.0 0.00 0.03 0.00 79 1015.9
20260904140020 55 136 2.0 5.0 0.00 0.03 0.00 80 1015.8
20260904134521 55 244 2.0 5.0 0.00 0.03 0.00 81 1015.6
20260904133017 55 242 3.0 8.0 0.00 0.03 0.00 82 1015.6
20260904131515 54 117 0.0 2.0 0.00 0.03 0.00 82 1015.5
20260904130028 55 150 0.0 3.0 0.00 0.03 0.00 80 1015.2
20260904124510 55 132 0.0 3.0 0.00 0.03 0.00 79 1015.2
20260904123016 55 132 0.0 5.0 0.00 0.03 0.00 79 1015.0
20260904121504 56 138 3.0 11.0 0.00 0.03 0.00 79 1014.8
20260904120113 55 290 2.0 9.0 0.00 0.03 0.00 79 1014.5
20260904114502 56 193 1.0 13.0 0.00 0.03 0.03 79 1014.6
20260904113001 55 238 2.0 6.0 0.00 0.03 0.03 79 1014.4
20260904111600 56 205 1.0 8.0 0.00 0.03 0.03 79 1014.2
20260904110059 55 184 2.0 11.0 0.00 0.03 0.03 79 1013.9
20260904104558 55 191 2.0 7.0 0.00 0.05 0.03 79 1013.9
20260904103057 56 214 4.0 13.0 0.00 0.05 0.03 78 1014.0
20260904101555 56 183 4.0 12.0 0.00 0.05 0.03 78 1013.9
20260904100056 56 217 3.0 11.0 0.00 0.05 0.03 78 1013.9
20260904094552 56 326 4.0 12.0 0.00 0.05 0.03 78 1013.7
20260904093051 56 269 3.0 12.0 0.00 0.05 0.03 78 1013.5
20260904091552 57 278 3.0 10.0 0.00 0.05 0.03 79 1013.3
20260904090047 57 277 5.0 12.0 0.00 0.05 0.03 78 1013.0
20260904084544 58 230 4.0 16.0 0.00 0.05 0.03 79 1012.8
20260904083044 58 252 4.0 12.0 0.00 0.05 0.03 80 1012.2
20260904081548 58 207 5.0 13.0 0.00 0.05 0.03 81 1011.9
20260904080043 59 287 7.0 16.0 0.00 0.05 0.03 83 1011.7
20260904074539 59 259 5.0 14.0 0.00 0.05 0.03 82 1011.4
20260904073036 60 238 5.0 13.0 0.00 0.05 0.03 79 1011.1
20260904071535 60 263 8.0 24.0 0.00 0.05 0.03 80 1010.5
20260904070035 60 231 7.0 17.0 0.00 0.05 0.03 82 1010.5
20260904064534 61 250 7.0 13.0 0.00 0.05 0.03 82 1010.7
20260904063038 61 256 7.0 15.0 0.00 0.05 0.03 83 1010.6
20260904061541 62 235 5.0 18.0 0.00 0.05 0.03 84 1010.5
20260904060132 62 305 5.0 17.0 0.00 0.05 0.03 85 1010.3
20260904054536 62 252 5.0 10.0 0.00 0.05 0.03 88 1010.2
20260904053031 62 309 5.0 14.0 0.00 0.05 0.03 89 1009.9
20260904051530 62 316 4.0 15.0 0.00 0.05 0.03 89 1010.0
20260904050029 62 217 6.0 14.0 0.00 0.05 0.03 87 1009.8
20260904044540 62 103 2.0 10.0 0.00 0.05 0.03 87 1009.7
20260904043035 62 127 2.0 9.0 0.00 0.05 0.03 86 1009.6
20260904041527 62 285 4.0 9.0 0.00 0.05 0.03 85 1009.4
20260904040027 62 301 5.0 14.0 0.00 0.05 0.03 85 1009.7
20260904034525 62 277 6.0 12.0 0.00 0.05 0.03 87 1009.7
20260904033024 62 333 6.0 14.0 0.00 0.05 0.03 86 1009.9
20260904031523 62 250 6.0 18.0 0.03 0.05 0.03 87 1010.0
20260904030023 61 318 7.0 13.0 0.03 0.05 0.03 89 1010.4
20260904024519 60 284 2.0 15.0 0.03 0.05 0.03 91 1010.6
20260904023016 60 316 5.0 11.0 0.03 0.05 0.03 89 1010.8